Weather History for Miami, FL

Change the Weather History Date:

Monday, March 18, 2013

  Actual Average Record
Temperature  
Mean Temperature 74 °F 73 °F  
Max Temperature 80 °F 80 °F 90 °F (2003)
Min Temperature 68 °F 65 °F 40 °F (1902)
Degree Days  
Heating Degree Days 0 0  
Month to date heating degree days 24 8  
Since 1 July heating degree days 60 124  
Cooling Degree Days 9 8  
Month to date cooling degree days 51 136  
Year to date cooling degree days 530 458  
Growing Degree Days 23 (Base 50)    
Moisture  
Dew Point 66 °F    
Average Humidity 77    
Maximum Humidity 87    
Minimum Humidity 67    
Precipitation  
Precipitation 0.06 in 0.11 in 3.54 in (1929)
Month to date precipitation 0.06 1.63  
Year to date precipitation 2.45 5.50  
Snow  
Snow 0.00 in - - ()
Month to date snowfall 0.0  
Since 1 July snowfall 0.0  
Snow Depth 0.00 in    
Sea Level Pressure  
Sea Level Pressure 30.04 in    
Wind  
Wind Speed 7 mph (SE)    
Max Wind Speed 21 mph    
Max Gust Speed 28 mph    
Visibility 10 miles    
Events Rain    
T = Trace of Precipitation, MM = Missing Value Source: NWS Daily Summary

Daily Weather History Graph

Daily Weather History Graph

Search for Another Location

Airport:

Trip Planner

Search our weather history database for the weather conditions in past years. The results will help you decide how hot, cold, wet, or windy it might be!

Date:

Astronomy

Mar. 18, 2013 Rise Set
Actual Time 7:27 AM EDT 7:31 PM EDT
Civil Twilight 7:04 AM EDT 7:54 PM EDT
Nautical Twilight 6:37 AM EDT 8:21 PM EDT
Astronomical Twilight 6:10 AM EDT 8:48 PM EDT
Moon 11:58 AM EDT (3/18) 12:57 AM EDT (3/18)
Length of Visible Light 12h 50m
Length of Day
12h 04m
Waxing Crescent, 40% of the Moon is Illuminated
Mar 18
Waxing Crescent
Mar 19
First Quarter
Mar 27
Full
Apr 3
Last Quarter
Apr 10
New

Hourly Weather History & Observations

Time (EDT) Temp. Dew Point Humidity Pressure Visibility Wind Dir Wind Speed Gust Speed Precip Events Conditions
12:53 AM 66.9 °F 60.1 °F 79% 30.08 in 10.0 mi ESE 3.5 mph - N/A   Scattered Clouds
1:53 AM 69.1 °F 62.1 °F 78% 30.06 in 10.0 mi ESE 3.5 mph - N/A   Mostly Cloudy
2:53 AM 69.1 °F 61.0 °F 75% 30.06 in 10.0 mi Calm Calm - N/A   Mostly Cloudy
3:53 AM 69.1 °F 63.0 °F 81% 30.04 in 10.0 mi SE 6.9 mph - N/A   Mostly Cloudy
4:53 AM 71.1 °F 63.0 °F 75% 30.04 in 10.0 mi SE 6.9 mph - N/A   Mostly Cloudy
5:53 AM 70.0 °F 63.0 °F 78% 30.04 in 10.0 mi SE 9.2 mph - N/A   Mostly Cloudy
6:53 AM 71.1 °F 63.0 °F 75% 30.06 in 10.0 mi SE 9.2 mph - N/A   Mostly Cloudy
7:53 AM 72.0 °F 64.0 °F 76% 30.07 in 10.0 mi ESE 8.1 mph 18.4 mph N/A   Mostly Cloudy
8:53 AM 73.9 °F 64.0 °F 71% 30.08 in 10.0 mi SE 10.4 mph 18.4 mph N/A   Mostly Cloudy
9:53 AM 75.0 °F 64.0 °F 69% 30.09 in 10.0 mi SE 13.8 mph 24.2 mph N/A   Mostly Cloudy
10:53 AM 78.1 °F 66.0 °F 66% 30.08 in 10.0 mi SE 12.7 mph 23.0 mph N/A   Mostly Cloudy
11:53 AM 79.0 °F 66.0 °F 64% 30.07 in 10.0 mi SSE 12.7 mph 23.0 mph N/A   Mostly Cloudy
12:29 PM 78.8 °F 66.2 °F 65% 30.06 in 10.0 mi SE 19.6 mph - N/A   Mostly Cloudy
12:53 PM 78.1 °F 66.0 °F 66% 30.06 in 10.0 mi SE 16.1 mph - N/A   Mostly Cloudy
1:53 PM 78.1 °F 66.9 °F 68% 30.03 in 10.0 mi SSE 16.1 mph 23.0 mph N/A   Mostly Cloudy
2:53 PM 78.1 °F 66.0 °F 66% 30.00 in 10.0 mi SSE 12.7 mph 24.2 mph N/A   Mostly Cloudy
3:53 PM 78.1 °F 66.9 °F 68% 30.00 in 10.0 mi SE 11.5 mph - N/A   Mostly Cloudy
4:53 PM 75.9 °F 66.9 °F 74% 30.01 in 9.0 mi SSE 11.5 mph 23.0 mph 0.00 in Rain Light Rain
5:53 PM 73.9 °F 69.1 °F 85% 30.00 in 7.0 mi SSE 5.8 mph - 0.02 in Rain Light Rain
6:53 PM 73.9 °F 70.0 °F 87% 30.01 in 7.0 mi SSE 3.5 mph - 0.02 in Rain Light Rain
7:53 PM 73.9 °F 70.0 °F 87% 30.00 in 10.0 mi Calm Calm - 0.00 in Rain Light Rain
8:53 PM 73.0 °F 70.0 °F 90% 30.01 in 10.0 mi Calm Calm - 0.01 in   Overcast
9:53 PM 73.9 °F 70.0 °F 87% 30.01 in 10.0 mi East 3.5 mph - 0.00 in   Overcast
10:53 PM 73.9 °F 70.0 °F 87% 30.02 in 10.0 mi Calm Calm - 0.00 in Rain Light Rain
11:53 PM 73.0 °F 71.1 °F 93% 30.01 in 6.0 mi Calm Calm - 0.01 in   Overcast